Lufkin, TX

11:48 PM CDT on September 21, 2017 (GMT -0500)
Angelina County

Weather History for KLFK - November, 2012

Change the Weather History Date:

Tuesday, November 20, 2012

  Actual Average Record
Temperature  
Mean Temperature 64 °F 57 °F  
Max Temperature 80 °F 68 °F 85 °F (2011)
Min Temperature 47 °F 46 °F 25 °F (1937)
Degree Days  
Heating Degree Days 1 9  
Month to date heating degree days 121 133  
Since 1 July heating degree days 201 199  
Cooling Degree Days 0 1  
Month to date cooling degree days 34 30  
Year to date cooling degree days 3159 2574  
Growing Degree Days 13 (Base 50)    
Moisture  
Dew Point 51 °F    
Average Humidity 66    
Maximum Humidity 89    
Minimum Humidity 42    
Precipitation  
Precipitation 0.00 in 0.16 in 2.64 in (1907)
Month to date precipitation 0.46 3.41  
Year to date precipitation 38.43 42.91  
Snow  
Snow 0.00 in - - ()
Month to date snowfall 0.0  
Since 1 July snowfall 0.0  
Since 1 September snowfall 0.0  
Snow Depth -    
Sea Level Pressure  
Sea Level Pressure 30.18 in    
Wind  
Wind Speed 1 mph (SSE)    
Max Wind Speed 5 mph    
Max Gust Speed -    
Visibility 7 miles    
Events Fog    
T = Trace of Precipitation, MM = Missing Value Source: NWS Daily Summary

Daily Weather History Graph

Daily Weather History Graph

Search for Another Location

Airport or City:

Trip Planner

Search our weather history database for the weather conditions in past years. The results will help you decide how hot, cold, wet, or windy it might be!

Date:

Astronomy

Nov. 20, 2012 Rise Set
Actual Time 6:51 AM CST 5:18 PM CST
Civil Twilight 6:25 AM CST 5:44 PM CST
Nautical Twilight 5:55 AM CST 6:13 PM CST
Astronomical Twilight 5:26 AM CST 6:42 PM CST
Moon 12:39 PM CST (11/20) No Moon Set
Length of Visible Light 11h 19m
Length of Day
10h 27m
First Quarter, 51% of the Moon is Illuminated
Nov 20
First Quarter
Nov 28
Full
Dec 6
Last Quarter
Dec 13
New
Dec 19
First Quarter

Hourly Weather History & Observations

Time (CST) Temp. Heat Index Dew Point Humidity Pressure Visibility Wind Dir Wind Speed Gust Speed Precip Events Conditions
12:53 AM 50.0 °F - 44.1 °F 80% 30.18 in 10.0 mi Calm Calm - N/A   Clear
1:53 AM 46.9 °F - 43.0 °F 86% 30.18 in 10.0 mi East 3.5 mph - N/A   Clear
2:53 AM 48.9 °F - 44.1 °F 83% 30.19 in 10.0 mi Calm Calm - N/A   Clear
3:12 AM 48.2 °F - 44.6 °F 87% 30.19 in 10.0 mi Calm Calm - N/A   Partly Cloudy
3:53 AM 50.0 °F - 46.0 °F 86% 30.18 in 9.0 mi Calm Calm - N/A   Overcast
4:03 AM 51.8 °F - 46.4 °F 82% 30.19 in 1.5 mi Calm Calm - N/A   Overcast
4:06 AM 51.8 °F - 48.2 °F 88% 30.19 in 0.8 mi Calm Calm - N/A   Mist
4:19 AM 51.8 °F - 48.2 °F 88% 30.19 in 0.2 mi Calm Calm - N/A Fog Fog
4:44 AM 51.8 °F - 48.2 °F 88% 30.19 in 0.5 mi Calm Calm - N/A Fog Fog
4:53 AM 52.0 °F - 48.9 °F 89% 30.18 in 0.5 mi Calm Calm - N/A Fog Fog
5:10 AM 51.8 °F - 48.2 °F 88% 30.18 in 2.0 mi Calm Calm - N/A   Overcast
5:19 AM 51.8 °F - 50.0 °F 94% 30.19 in 3.0 mi Calm Calm - N/A   Overcast
5:39 AM 51.8 °F - 48.2 °F 88% 30.18 in 3.0 mi Calm Calm - N/A   Overcast
5:51 AM 51.8 °F - 50.0 °F 94% 30.19 in 4.0 mi Calm Calm - N/A   Overcast
6:53 AM 53.1 °F - 50.0 °F 89% 30.19 in 6.0 mi Calm Calm - N/A   Overcast
7:28 AM 53.6 °F - 51.8 °F 94% 30.21 in 4.0 mi Calm Calm - N/A   Overcast
8:17 AM 57.2 °F - 53.6 °F 88% 30.22 in 3.0 mi East 3.5 mph - N/A   Mostly Cloudy
8:53 AM 62.1 °F - 55.0 °F 78% 30.23 in 8.0 mi Calm Calm - N/A   Scattered Clouds
10:53 AM 73.0 °F - 55.0 °F 53% 30.21 in 10.0 mi SW 4.6 mph - N/A   Clear
11:53 AM 75.9 °F - 54.0 °F 46% 30.18 in 10.0 mi WSW 4.6 mph - N/A   Clear
1:53 PM 78.1 °F - 55.0 °F 45% 30.14 in 10.0 mi Calm Calm - N/A   Scattered Clouds
2:53 PM 80.1 °F 80.2 °F 55.9 °F 43% 30.12 in 10.0 mi Variable 3.5 mph - N/A   Clear
3:53 PM 79.0 °F - 55.9 °F 45% 30.12 in 10.0 mi North 3.5 mph - N/A   Clear
4:53 PM 75.9 °F - 55.0 °F 48% 30.12 in 10.0 mi Calm Calm - N/A   Clear
5:53 PM 64.9 °F - 55.9 °F 73% 30.14 in 10.0 mi Calm Calm - N/A   Clear
6:53 PM 62.1 °F - 55.9 °F 80% 30.16 in 10.0 mi Calm Calm - N/A   Clear
8:53 PM 57.0 °F - 53.1 °F 87% 30.18 in 10.0 mi Calm Calm - N/A   Clear
9:53 PM 57.0 °F - 52.0 °F 83% 30.19 in 8.0 mi Calm Calm - N/A   Clear
10:53 PM 55.9 °F - 52.0 °F 87% 30.19 in 8.0 mi Calm Calm - N/A   Clear
11:53 PM 55.0 °F - 51.1 °F 86% 30.19 in 6.0 mi Calm Calm - N/A   Clear